Location: Harbor View
(36.2448°N, 86.5797°W)
Time: 09:24:55
(UTC+00:00)

Cosmos 1656 - Pass Details

Date: 29 October 2020
Orbit: 797 x 851 km, 71.1° (Epoch: 05 December)

Event Time Altitude Azimuth Distance (km) Brightness Sun altitude
Rises 23:15:54 0° 197° (SSW) 3,321 7.2 -5.4°
Reaches altitude 10° 23:18:18 10° 196° (SSW) 2,401 6.5 -5.8°
Maximum altitude 23:23:48 81° 110° (ESE) 840 3.7 -6.9°
Drops below altitude 10° 23:29:25 10° 24° (NNE) 2,453 5.8 -8.0°
Sets 23:31:53 0° 23° (NNE) 3,398 6.5 -8.5°
